#timestamp,LO_Frequency,Hit 
1500202815.4,286046990.6,N
1500202835.3,286046992.8,N
1500202855.1,286046990.6,N
1500202856.0,286046990.6,N
1500202875.8,286046992.8,N
1500202895.7,286046990.1,N
1500202915.5,286046992.7,N
1500202935.3,286046992.8,N
1500202955.2,286046992.3,N
1500202975.0,286046993.1,N
1500202975.9,286046993.1,N
1500202995.8,286046993.0,N
1500203015.6,286046992.9,N
1500203035.4,286046992.3,N
1500203055.3,286046994.6,N
1500203075.1,286046994.1,N
1500203095.9,286046994.1,N
1500203115.7,286046993.4,N
1500203135.5,286046993.7,N
1500203155.4,286046996.0,N
1500203175.2,286046996.3,N
1500203195.0,286046993.6,N
1500203195.9,286046993.6,N
1500203215.8,286046994.6,N
1500203235.6,286046993.5,N
1500203255.5,286046993.5,N
1500203275.3,286046996.2,N
1500203295.1,286046995.4,N
1500203315.9,286046997.1,N
1500203335.7,286046997.5,N
1500203355.5,286046995.3,N
1500203375.4,286046995.0,N
1500203395.2,286046997.7,N
1500203415.1,286046995.3,N
1500203416.0,286046995.3,N
1500203435.8,286046995.4,N
1500203455.6,286046995.9,N
1500203475.5,286046994.2,N
1500203495.3,286046993.5,N
1500203515.1,286046996.3,N
1500203535.9,286046993.3,N
1500203555.7,286046994.1,N
1500203575.6,286046992.9,N
1500203595.4,286046993.1,N
1500203615.2,286046990.3,N
1500203635.1,286046991.2,N
1500203636.0,286046991.2,N
1500203655.8,286046989.0,N
1500203675.6,286046988.9,N
1500203695.5,286046991.3,N
1500203715.3,286046992.7,N
1500203735.2,286046988.7,N
1500203755.9,286046987.4,N
1500203775.7,286046989.1,N
1500203795.6,286046988.5,N
1500203815.4,286046989.4,N
1500203835.2,286046988.9,N
1500203855.1,286046988.5,N
1500203856.0,286046988.5,N
1500203875.8,286046988.8,N
1500203895.7,286046991.0,N
1500203915.5,286046991.2,N
1500203935.3,286046989.7,N
1500203955.2,286046987.5,N
1500203975.0,286046987.9,N
1500203975.9,286046987.9,N
1500203995.7,286046985.4,N
1500204015.6,286046987.7,N
1500204035.4,286046989.3,N
1500204055.3,286046991.6,N
1500204075.1,286046988.5,N
1500204076.0,286046988.5,N
1500204095.8,286046990.8,N
1500204115.7,286046990.4,N
1500204135.5,286046990.1,N
1500204155.3,286046991.3,N
1500204175.2,286046993.2,N
1500204195.0,286046993.1,N
1500204195.9,286046993.1,N
1500204215.8,286046992.9,N
1500204235.6,286046991.1,N
1500204255.4,286046991.2,N
1500204275.3,286046991.2,N
1500204295.1,286046989.6,N
1500204315.9,286046988.4,N
1500204335.7,286046985.7,N
1500204355.5,286046986.7,N
1500204375.4,286046984.1,N
1500204395.2,286046982.5,N
1500204415.0,286046983.2,N
1500204415.9,286046983.2,N
1500204435.8,286046983.0,N
1500204455.6,286046984.6,N
1500204475.5,286046982.6,N
1500204495.3,286046981.9,N
1500204515.1,286046980.3,N
1500204535.9,286046978.0,N
1500204555.7,286046976.8,N
1500204575.5,286046974.8,N
1500204595.4,286046974.8,N
1500204615.2,286046974.8,N
1500204635.1,286046974.8,N
1500204636.0,286046974.8,N
1500204655.8,286046972.9,N
1500204675.6,286046970.9,N
1500204695.5,286046970.9,N
1500204715.3,286046973.3,N
1500204735.1,286046973.4,N
1500204755.9,286046972.9,N
1500204775.7,286046972.1,N
1500204795.6,286046971.1,N
1500204815.4,286046973.8,N
1500204835.2,286046972.6,N
1500204855.1,286046973.7,N
1500204856.0,286046973.7,N
1500204875.8,286046972.5,N
1500204895.6,286046973.3,N
1500204915.5,286046973.8,N
1500204935.3,286046973.7,N
1500204955.2,286046974.6,N
1500204975.9,286046974.9,N
1500204995.7,286046975.5,N
1500205015.6,286046971.2,N
1500205035.4,286046971.0,N
1500205055.2,286046971.7,N
1500205075.1,286046970.9,N
1500205076.0,286046970.9,N
1500205095.8,286046973.2,N
1500205115.7,286046972.8,N
1500205135.5,286046972.9,N
1500205155.3,286046977.1,N
1500205175.2,286046974.9,N
1500205195.0,286046973.0,N
1500205195.9,286046973.0,N
1500205215.8,286046973.4,N
1500205235.6,286046973.5,N
1500205255.4,286046973.8,N
1500205275.3,286046971.8,N
1500205295.1,286046972.2,N
1500205315.8,286046970.6,N
1500205335.7,286046970.0,N
1500205355.5,286046968.2,N
1500205375.3,286046967.4,N
1500205395.2,286046966.3,N
1500205415.0,286046968.4,N
1500205415.9,286046968.4,N
1500205435.8,286046970.7,N
1500205455.6,286046968.5,N
1500205475.4,286046968.7,N
1500205495.3,286046969.2,N
1500205515.1,286046968.8,N
1500205535.8,286046968.6,N
1500205555.7,286046966.7,N
1500205575.5,286046968.5,N
1500205595.4,286046966.2,N
1500205615.2,286046967.3,N
1500205635.0,286046967.0,N
1500205635.9,286046967.0,N
1500205655.8,286046967.2,N
1500205675.6,286046965.9,N
1500205695.4,286046963.1,N
1500205715.3,286046963.0,N
1500205735.1,286046965.2,N
1500205755.9,286046961.3,N
1500205775.7,286046964.1,N
1500205795.5,286046963.3,N
1500205815.4,286046962.9,N
1500205835.2,286046967.2,N
1500205855.0,286046968.8,N
1500205856.0,286046968.8,N
1500205875.8,286046970.6,N
1500205895.6,286046973.6,N
1500205915.5,286046973.0,N
1500205935.3,286046975.0,N
1500205955.1,286046975.4,N
1500205975.9,286046975.3,N
1500205995.7,286046972.6,N
1500206015.6,286046971.1,N
1500206035.4,286046969.9,N
1500206055.2,286046967.7,N
1500206075.1,286046968.1,N
1500206076.0,286046968.1,N
1500206095.8,286046968.9,N
1500206115.6,286046968.7,N
1500206135.5,286046966.6,N
1500206155.3,286046966.5,N
1500206175.2,286046964.6,N
1500206195.9,286046964.9,N
1500206215.7,286046967.2,N
1500206235.6,286046967.5,N
1500206255.4,286046968.8,N
1500206275.2,286046968.2,N
1500206295.1,286046971.9,N
1500206296.0,286046971.9,N
1500206315.8,286046973.6,N
1500206335.7,286046975.2,N
1500206355.5,286046975.1,N
1500206375.3,286046973.0,N
1500206395.2,286046973.4,N
